Boscombe Down, United Kingdom

4:32 PM BST on August 28, 2016 (GMT +0100)
Boscombe Down

Weather History for EGDM - October, 2013

Change the Weather History Date:

Monday, October 28, 2013

  Actual Average Record
Temperature  
Mean Temperature 51 °F -  
Max Temperature 56 °F 48 °F 65 °F (2014)
Min Temperature 46 °F 38 °F 30 °F (2012)
Degree Days  
Heating Degree Days 14    
Growing Degree Days 1 (Base 50)    
Moisture  
Dew Point 47 °F    
Average Humidity 80    
Maximum Humidity 98    
Minimum Humidity 60    
Precipitation  
Precipitation 0.08 in - - ()
Sea Level Pressure  
Sea Level Pressure 29.34 in    
Wind  
Wind Speed 21 mph ()    
Max Wind Speed 33 mph    
Max Gust Speed 47 mph    
Visibility 6.5 miles    
Events Rain    
Averages and records for this station are not official NWS values.
T = Trace of Precipitation, MM = Missing Value Source: Averaged Metar Reports

Daily Weather History Graph

Daily Weather History Graph

Search for Another Location

Airport or City:

Trip Planner

Search our weather history database for the weather conditions in past years. The results will help you decide how hot, cold, wet, or windy it might be!

Date:

Astronomy

Oct. 28, 2013 Rise Set
Actual Time 6:52 AM GMT 4:47 PM GMT
Civil Twilight 6:18 AM GMT 5:22 PM GMT
Nautical Twilight 5:39 AM GMT 6:01 PM GMT
Astronomical Twilight 5:01 AM GMT 6:39 PM GMT
Moon No Moon Rise 1:58 PM GMT
Length of Visible Light 11h 04m
Length of Day
9h 55m
Waning Crescent, 36% of the Moon is Illuminated
Oct 28
Waning Crescent
Nov 3
New
Nov 10
First Quarter
Nov 17
Full
Nov 25
Last Quarter

Hourly Weather History & Observations

Time (GMT) Temp. Windchill Dew Point Humidity Pressure Visibility Wind Dir Wind Speed Gust Speed Precip Events Conditions
12:00 AM 55 °F - 54 °F 98% 29.16 in 4 mi SSE 11.5 mph - - Rain Heavy Rain
12:50 AM 59.0 °F - 57.2 °F 94% 29.09 in 5.6 mi SW 31.1 mph 43.7 mph N/A Rain Rain
1:50 AM 59.0 °F - 57.2 °F 94% 29.03 in 1.9 mi SSW 28.8 mph 42.6 mph N/A Rain Rain
2:50 AM 60.8 °F - 57.2 °F 88% 29.00 in - SSW 29.9 mph 44.9 mph N/A Rain Rain
3:00 AM 60 °F - 58 °F 90% 29.01 in 3 mi SSW 29.9 mph - - Rain Rain
3:50 AM 59.0 °F - 55.4 °F 88% 28.94 in 5.0 mi SSW 31.1 mph 44.9 mph N/A Rain Rain Showers
4:50 AM 57.2 °F - 55.4 °F 94% 28.91 in 5.6 mi SSW 33.4 mph 47.2 mph N/A   Haze
5:50 AM 51.8 °F - 48.2 °F 88% 29.00 in 6.2 mi West 33.4 mph 47.2 mph N/A Rain Light Rain
6:00 AM 52 °F - 48 °F 83% 29.03 in 22 mi West 33.4 mph - - Rain Light Rain
6:50 AM 50.0 °F - 46.4 °F 87% 29.15 in 6.2 mi West 25.3 mph 40.3 mph N/A   Mostly Cloudy
7:50 AM 50.0 °F - 48.2 °F 94% 29.24 in 6.2 mi West 16.1 mph - N/A   Scattered Clouds
8:50 AM 51.8 °F - 46.4 °F 82% 29.27 in 6.2 mi WSW 23.0 mph - N/A   Scattered Clouds
9:00 AM 51 °F - 46 °F 76% 29.29 in 22 mi WSW 23.0 mph - -   Partly Cloudy
9:50 AM 51.8 °F - 44.6 °F 76% 29.30 in 6.2 mi WSW 25.3 mph 39.1 mph N/A   Mostly Cloudy
10:25 AM 53.6 °F - 44.6 °F 72% 29.33 in 6.2 mi WSW 24.2 mph - N/A   Scattered Clouds
10:50 AM 55.4 °F - 44.6 °F 67% 29.36 in 6.2 mi WSW 24.2 mph 36.8 mph N/A   Mostly Cloudy
11:50 AM 55.4 °F - 44.6 °F 67% 29.39 in 6.2 mi WSW 20.7 mph 33.4 mph N/A   Mostly Cloudy
12:00 PM 54 °F - 44 °F 60% 29.39 in 22 mi WSW 20.7 mph - -   Partly Cloudy
12:50 PM 55.4 °F - 44.6 °F 67% 29.42 in 6.2 mi WSW 20.7 mph - N/A   Mostly Cloudy
1:30 PM 53.6 °F - 44.6 °F 72% 29.44 in 3.1 mi WSW 21.9 mph - N/A Rain Rain Showers
1:45 PM 48.2 °F - 46.4 °F 93% 29.44 in 6.2 mi West 19.6 mph - N/A   Mostly Cloudy
1:50 PM 50.0 °F - 46.4 °F 87% 29.44 in 6.2 mi West 16.1 mph - N/A   Mostly Cloudy
2:50 PM 53.6 °F - 44.6 °F 72% 29.47 in 6.2 mi West 23.0 mph - N/A   Partly Cloudy
3:00 PM 53 °F - 44 °F 64% 29.48 in 19 mi West 23.0 mph - -   Partly Cloudy
3:06 PM 53.6 °F - 44.6 °F 72% 29.47 in 6.2 mi West 21.9 mph - N/A Rain Light Rain Showers
3:22 PM 51.8 °F - 44.6 °F 76% 29.47 in 6.2 mi WSW 16.1 mph - N/A Rain Light Rain Showers
3:50 PM 51.8 °F - 44.6 °F 76% 29.50 in 6.2 mi WSW 17.3 mph - N/A   Scattered Clouds
4:50 PM 50.0 °F - 42.8 °F 76% 29.50 in 6.2 mi WSW 15.0 mph - N/A   Partly Cloudy
5:50 PM 46.4 °F 39.8 °F 41.0 °F 81% 29.53 in 6.2 mi WSW 16.1 mph - N/A   Partly Cloudy
6:00 PM 47 °F - 41 °F 73% 29.55 in 19 mi WSW 16.1 mph - - Rain Light Rain Showers
6:50 PM 48.2 °F - 41.0 °F 76% 29.53 in 6.2 mi SW 12.7 mph - N/A   Partly Cloudy
7:50 PM 48.2 °F - 41.0 °F 76% 29.56 in 6.2 mi SW 15.0 mph - N/A   Partly Cloudy
8:50 PM 48.2 °F - 41.0 °F 76% 29.56 in 6.2 mi WSW 11.5 mph - N/A   Partly Cloudy
9:00 PM 47 °F - 41 °F 71% 29.59 in 31 mi WSW 11.5 mph - -   Scattered Clouds
9:50 PM 48.2 °F - 42.8 °F 82% 29.56 in 6.2 mi WSW 16.1 mph - N/A   Scattered Clouds
10:50 PM 46.4 °F 40.4 °F 42.8 °F 87% 29.59 in 6.2 mi WSW 13.8 mph - N/A   Partly Cloudy
11:50 PM 46.4 °F 40.4 °F 44.6 °F 93% 29.62 in 6.2 mi WSW 13.8 mph - N/A   Unknown